Location: Daybis Observatory
(33.4273°N, 88.8061°W)
Time: 13:50:43
(UTC-05:00)

Daily predictions for brighter satellites

Satellite Brightness Start Highest point End
(mag) Time Altitude Azimuth Time Altitude Azimuth Time Altitude Azimuth
Cosmos 407 Rocket 4.1 20:14:27 10° N 20:19:25 40° ENE 20:24:24 10° SE
Cosmos 2184 Rocket 4.0 20:16:12 10° S 20:22:19 74° E 20:28:29 10° N
CENTAUR R/B 3.5 20:22:50 10° NW 20:30:48 67° WSW 20:39:01 10° SSE
Cosmos 1452 Rocket 3.5 20:25:59 10° S 20:31:09 64° ESE 20:36:22 10° NNE
Lacrosse 5 3.7 20:34:12 10° ESE 20:34:38 10° ESE 20:35:03 10° ESE
Cosmos 1184 Rocket 4.2 20:33:41 10° SE 20:36:17 21° E 20:38:53 10° NE
SL-08 ROCKET BODY 4.4 20:30:17 10° S 20:36:18 87° E 20:42:15 10° N
Cosmos 1190 Rocket 4.0 20:31:58 10° NNW 20:37:11 76° ENE 20:42:22 10° SSE
Cosmos 1674 Rocket 3.6 20:37:28 10° N 20:41:53 64° E 20:46:14 10° SSE
Cosmos 2297 4.4 20:37:31 10° SSE 20:42:28 32° ESE 20:47:29 10° NE
CZ-2D R/B 3.5 20:40:05 10° S 20:43:52 72° WSW 20:47:41 10° NNW
H-2A R/B 3.3 20:42:51 10° WSW 20:46:23 55° S 21:03:45 10° E
CZ-3A R/B 4.2 20:18:19 10° W 20:47:00 46° SSW 20:51:20 14° SE
Okean 2 Rocket 4.0 20:47:09 10° SSE 20:50:53 29° E 20:54:40 10° NNE
Cosmos 1782 Rocket 4.0 20:51:30 10° SSE 20:55:40 41° E 20:59:52 10° NNE
Cosmos 1606 2.9 20:52:20 10° N 20:56:11 53° E 20:59:21 14° SSE
Meteor 1-10 Rocket 4.4 20:51:02 10° NNW 20:56:48 76° W 21:02:25 10° S
CZ-4 DEB 2.6 20:55:35 13° SSE 20:58:17 73° ENE 21:01:27 10° N
EO 1 Delta rocket 4.3 20:55:32 10° NNE 21:00:48 46° E 21:05:19 10° SSE
Resurs 01 Rocket 4.4 21:00:06 10° SW 21:02:41 15° W 21:05:16 10° WNW
USA 186 3.0 21:00:00 10° S 21:02:58 40° W 21:06:07 10° NNW
Cosmos 1242 Rocket 4.0 21:00:59 10° NNE 21:03:55 22° ENE 21:04:46 20° E
ALOS 3.4 20:59:30 10° S 21:03:56 44° W 21:08:25 10° NNW
Cosmos 1862 3.3 21:01:23 10° S 21:05:27 86° E 21:09:32 10° N
Sich 1 Rocket 4.2 21:01:19 10° SSW 21:05:50 62° W 21:10:22 10° N
Cosmos 1174 3.0 21:03:18 10° NNW 21:06:21 84° WSW 21:07:52 26° SSE
Cosmos 676 Rocket 4.0 21:03:17 10° NNW 21:08:31 87° ENE 21:12:56 15° SSE
COS B Rocket 3.2 21:05:30 10° NNE 21:09:08 49° E 21:10:45 26° SSE
YAOGAN 6 4.4 21:10:46 15° ENE 21:10:53 15° ENE 21:13:00 10° NNE
Lacrosse 5 rocket 2.0 21:07:27 10° S 21:10:57 28° ESE 21:14:17 10° ENE
Cosmos 1954 Rocket 4.0 21:05:47 10° NNW 21:11:00 69° ENE 21:14:41 20° SSE
OAO 3 Rocket 3.2 21:06:18 10° WSW 21:11:17 86° SSE 21:15:30 14° ENE
GPS 2-05 Rocket1 3.4 21:07:45 10° W 21:11:28 60° N 21:13:49 20° ENE
Nadezhda 3 Rocket 4.0 21:06:18 10° N 21:12:39 73° E 21:18:31 12° SSE
ATLAS 2A CENTAUR R/B 2.2 21:10:40 10° WSW 21:12:54 17° SSW 21:12:54 17° SSW
Cosmos 1408 2.5 21:09:26 10° S 21:13:05 87° W 21:16:45 10° N
SJ-11-01 4.2 21:09:11 14° SSE 21:13:16 83° ENE 21:18:02 10° N
DNEPR-1 R/B 4.5 21:09:28 10° NNW 21:14:16 38° NE 21:16:17 25° ESE
Cosmos 1975 Rocket 3.5 21:10:10 10° N 21:14:18 42° E 21:16:09 27° SE
H-2A R/B 4.5 21:11:39 10° SSW 21:14:55 30° W 21:18:14 10° NW
ATLAS 5 CENTAUR R/B 4.1 21:10:59 10° NW 21:16:18 30° WSW 21:21:49 10° S
Centaur AC-119 3.4 21:15:40 10° SW 21:16:35 14° SSW 21:16:35 14° SSW
Cosmos 1908 Rocket 4.4 21:15:45 10° SSW 21:20:01 53° W 21:24:23 10° N
Meteor 1-27 Rocket 3.7 21:16:10 10° N 21:21:42 80° W 21:26:43 13° S
Cosmos 1378 Rocket 3.4 21:17:57 10° N 21:22:17 90° NNE 21:25:11 21° S
Cosmos 1741 Rocket 4.4 21:24:11 10° N 21:29:11 46° ENE 21:31:03 32° ESE
Nimbus 7 Rocket 4.4 21:25:45 10° NNE 21:31:45 84° ESE 21:37:46 10° SSW
MetOp-A 4.5 21:31:17 31° SE 21:33:23 48° ENE 21:38:30 10° N
OAO 1 Rocket 4.5 21:29:52 10° W 21:35:11 78° N 21:38:33 23° ENE
Cosmos 1825 3.6 21:33:12 10° SSW 21:36:46 38° W 21:40:22 10° N
Envisat 2.9 21:35:07 26° SSE 21:38:03 87° WSW 21:43:10 10° NNW
Cosmos 2341 Rocket 4.4 21:33:39 10° SSW 21:39:54 66° W 21:46:08 10° N
SEDSat Delta rocket 2.8 21:36:15 10° WSW 21:40:42 64° S 21:41:22 54° SE
Cosmos 614 Rocket 4.1 21:36:49 10° N 21:41:48 55° ENE 21:43:08 42° ESE
Meteosat 1 Rocket2 4.5 21:37:29 10° W 21:42:40 45° S 21:45:16 33° SE
SL-8 Rocket 3.9 21:38:03 18° S 21:42:54 75° E 21:49:08 10° N
deb Chang Zheng 4 4.3 21:39:11 10° N 21:43:30 54° WNW 21:47:50 10° SSW
Cosmos 1833 Rocket 3.5 21:38:43 10° N 21:43:48 34° ENE 21:45:06 31° E
Terra 3.9 21:44:32 12° ENE 21:44:32 12° ENE 21:46:17 10° NE
USA 245 4.3 21:46:36 31° NE 21:46:36 31° NE 21:49:48 10° N
ERS-1 Rocket 3.9 21:43:05 15° SSW 21:47:00 45° W 21:51:50 10° NNW
Cosmos 2278 Rocket 4.1 21:42:48 10° WSW 21:47:46 31° WNW 21:52:46 10° N
H-2A R/B 2.2 21:46:49 36° S 21:48:28 67° WSW 21:52:40 10° NNW
Cosmos 1939 Rocket 3.9 21:50:56 26° SSW 21:52:37 40° W 21:56:20 10° NNW
Atlas Centaur 2 3.1 21:50:42 10° WSW 21:52:19 17° SW 21:52:19 17° SW
Timation 1 Rocket 4.2 21:49:55 17° S 21:54:40 70° ESE 22:00:38 10° NNE
Cosmos 2151 Rocket 3.5 21:56:55 64° SSE 21:57:31 75° E 22:02:02 10° N
Cosmos 1140 Rocket 3.8 21:53:42 10° NNW 21:58:47 61° WSW 22:00:42 36° SSW
COSMOS 2487 4.2 21:55:59 10° NW 21:59:04 27° W 22:00:03 23° SW
Meteor 1-25 Rocket 4.3 21:58:34 47° SE 21:59:54 59° E 22:05:37 10° NNE
Timation 2 Rocket 3.9 21:55:59 10° NNW 22:01:58 76° WSW 22:04:05 42° S
SPOT 5 3.3 22:02:47 39° S 22:04:43 70° WSW 22:10:05 10° NNW
CZ-4B R/B 3.2 22:02:50 10° NNE 22:07:43 81° ESE 22:08:19 67° S
Cosmos 2082 Rocket 2.1 22:06:13 10° NNW 22:11:56 80° ENE 22:12:49 64° SE
Cosmos 864 Rocket 4.3 22:09:39 41° S 22:11:57 86° E 22:18:08 10° N
Lacrosse 5 1.7 22:11:47 10° SW 22:16:53 89° NW 22:22:00 10° NE
Cosmos 1812 4.4 22:13:14 10° N 22:15:11 25° NNE 22:15:11 25° NNE
H-2A R/B 2.9 22:20:50 38° ENE 22:20:50 38° ENE 22:25:21 10° N
Cosmos 2366 rocket 4.2 22:22:11 33° SSW 22:25:08 69° W 22:31:28 10° N
Meteor 1-18 Rocket 4.2 22:22:03 10° N 22:28:00 87° E 22:28:37 73° SSE
NOAA 11 4.0 22:28:28 78° S 22:28:52 88° WSW 22:34:24 10° NNW
SPOT 1/Viking Rocket 3.7 22:35:56 61° WSW 22:36:12 62° WSW 22:41:22 10° NNW
Lacrosse 5 rocket 3.4 22:46:53 10° W 22:50:07 24° NW 22:53:14 10° NNE
ARGOS 3.6 22:50:37 52° W 22:50:38 52° W 22:55:51 10° NNW
Cosmos 2369 Rocket 3.5 22:55:52 30° NE 22:55:52 30° NE 22:58:43 10° NNE
USA 229 DEB 3.8 22:46:42 10° NW 22:53:46 67° WSW 22:54:27 63° SSW
USA 229 3.8 22:46:48 10° NW 22:53:52 67° WSW 22:54:33 64° SSW
Meteor 1-11 Rocket 4.2 22:56:17 53° NE 22:56:17 53° NE 23:00:43 10° NNE
OAO 3 Rocket 4.3 22:50:02 10° W 22:53:20 41° WNW 22:53:20 41° WNW
NOSS 3-1 (A) 4.4 23:04:42 10° NNW 23:12:14 53° NE 23:12:56 51° ENE
Cosmos 1943 Rocket 4.4 23:21:41 15° NE 23:21:41 15° NE 23:22:40 10° NE
Terra 3.3 23:23:26 33° NW 23:23:26 33° NW 23:26:12 10° NNW
Cosmos 1833 Rocket 4.3 23:22:57 10° NW 23:26:48 25° W 23:26:48 25° W
ATLAS 2AS CENTAUR R/B 4.2 23:26:04 10° NNW 23:32:55 29° NE 23:34:23 27° ENE
NOSS 3-1 (C) 4.0 23:32:57 10° NNW 23:40:23 82° WNW 23:40:23 82° WNW
USA 234 3.5 23:38:46 10° NE 23:45:12 62° NW 23:45:22 61° NW
